Location: Adamstown South Public School
(32.9318°S, 151.7012°E)
Time: 17:57:17
(UTC+00:00)

ARGOS Delta rocket - Pass Details

Date: 07 June 2020
Orbit: 636 x 837 km, 96.4° (Epoch: 05 July)

Event Time Altitude Azimuth Distance (km) Brightness Sun altitude
Exits shadow 08:31:12 40° 112° (ESE) 1,108 4.3 -20.0°
Maximum altitude 08:32:06 44° 84° (E) 1,031 4.2 -20.2°
Drops below altitude 10° 08:36:44 10° 11° (N) 2,203 6.4 -21.1°
Sets 08:39:01 0° 4° (N) 3,083 7.3 -21.6°
